User: anonymous   Login
Location: Unspecified
(0.0000°N, 0.0000°E)
Time: 06:09:27
(UTC+00:00)
Language:

GENESIS II - Orbit

View from above orbital plane
View from above orbital plane
View from above satellite
View from above satellite

Ground track
Ground track

The orbit data is extracted from the following two-line orbital elements,

1 31789U 07028A   18319.57079149 +.00000459 +00000-0 +33516-4 0  9999
2 31789 064.5041 077.8433 0032927 315.4091 044.4382 15.16719312627217
Epoch (UTC): 15 November 2018 13:41:56
Eccentricity: 0.0032927
inclination: 64.5041°
perigee height: 493 km
apogee height: 538 km
right ascension of ascending node: 77.8433°
argument of perigee: 315.4091°
revolutions per day: 15.16719312
mean anomaly at epoch: 44.4382°
orbit number at epoch: 62721

The dashed part of the orbit path shows where the satellite is in the earth's shadow,  

DLR